Howell, MI

7:07 AM EST on February 25, 2017 (GMT -0500)
Livingston County

Weather History for KOZW - March, 2014

Change the Weather History Date:

Monday, March 24, 2014

  Actual Average Record
Temperature  
Mean Temperature 20 °F -  
Max Temperature 29 °F 46 °F 69 °F (2003)
Min Temperature 11 °F 29 °F 11 °F (2014)
Degree Days  
Heating Degree Days 45    
Moisture  
Dew Point 10 °F    
Average Humidity 65    
Maximum Humidity 88    
Minimum Humidity 42    
Precipitation  
Precipitation 0.00 in - - ()
Sea Level Pressure  
Sea Level Pressure 30.21 in    
Wind  
Wind Speed 7 mph (WSW)    
Max Wind Speed 17 mph    
Max Gust Speed 23 mph    
Visibility 10 miles    
Events Snow    
Averages and records for this station are not official NWS values.
T = Trace of Precipitation, MM = Missing Value Source: NWS Daily Summary

Daily Weather History Graph

Daily Weather History Graph

Search for Another Location

Airport or City:

Trip Planner

Search our weather history database for the weather conditions in past years. The results will help you decide how hot, cold, wet, or windy it might be!

Date:

Astronomy

Mar. 24, 2014 Rise Set
Actual Time 7:32 AM EDT 7:52 PM EDT
Civil Twilight 7:03 AM EDT 8:21 PM EDT
Nautical Twilight 6:30 AM EDT 8:54 PM EDT
Astronomical Twilight 5:56 AM EDT 9:28 PM EDT
Moon 3:08 AM EDT (3/24) 1:10 PM EDT (3/24)
Length of Visible Light 13h 17m
Length of Day
12h 20m
Last Quarter, 43% of the Moon is Illuminated
Mar 24
Last Quarter
Mar 30
New
Apr 7
First Quarter
Apr 15
Full
Apr 22
Last Quarter

Hourly Weather History & Observations

Time (EDT) Temp. Windchill Dew Point Humidity Pressure Visibility Wind Dir Wind Speed Gust Speed Precip Events Conditions
12:15 AM 18.7 °F 8.6 °F 9.5 °F 67% 30.31 in 10.0 mi WNW 8.1 mph - N/A   Mostly Cloudy
12:34 AM 18.5 °F 9.3 °F 9.9 °F 69% 30.30 in 10.0 mi WNW 6.9 mph - N/A   Overcast
12:55 AM 18.5 °F 9.3 °F 9.9 °F 69% 30.31 in 10.0 mi WNW 6.9 mph - N/A   Overcast
1:15 AM 18.1 °F 8.9 °F 9.5 °F 69% 30.30 in 10.0 mi NW 6.9 mph - N/A   Mostly Cloudy
1:34 AM 17.2 °F 7.8 °F 9.5 °F 72% 30.30 in 10.0 mi WNW 6.9 mph - N/A   Scattered Clouds
1:55 AM 16.2 °F 6.5 °F 9.1 °F 74% 30.31 in 10.0 mi West 6.9 mph - N/A   Scattered Clouds
2:15 AM 15.6 °F 8.3 °F 8.6 °F 74% 30.30 in 10.0 mi WNW 4.6 mph - N/A   Clear
2:34 AM 15.1 °F 7.7 °F 8.6 °F 76% 30.31 in 10.0 mi WNW 4.6 mph - N/A   Clear
2:55 AM 14.9 °F 9.2 °F 8.6 °F 76% 30.31 in 10.0 mi WNW 3.5 mph - N/A   Clear
3:15 AM 15.1 °F 7.7 °F 9.5 °F 79% 30.30 in 10.0 mi NW 4.6 mph - N/A   Clear
3:34 AM 14.9 °F 9.2 °F 8.4 °F 76% 30.30 in 10.0 mi NNW 3.5 mph - N/A   Clear
3:55 AM 14.9 °F 9.2 °F 7.9 °F 74% 30.30 in 10.0 mi NW 3.5 mph - N/A   Clear
4:15 AM 14.4 °F 8.6 °F 7.7 °F 75% 30.30 in 10.0 mi NW 3.5 mph - N/A   Clear
4:35 AM 14.5 °F 8.8 °F 7.7 °F 74% 30.30 in 10.0 mi NW 3.5 mph - N/A   Clear
4:55 AM 14.0 °F 8.2 °F 7.7 °F 76% 30.30 in 10.0 mi NW 3.5 mph - N/A   Clear
5:15 AM 13.6 °F - 7.5 °F 77% 30.29 in 10.0 mi Calm Calm - N/A   Clear
5:35 AM 13.1 °F - 7.7 °F 79% 30.30 in 10.0 mi Calm Calm - N/A   Clear
5:55 AM 12.2 °F - 7.5 °F 82% 30.30 in 10.0 mi Calm Calm - N/A   Clear
6:15 AM 12.0 °F 5.9 °F 8.1 °F 84% 30.30 in 10.0 mi WSW 3.5 mph - N/A   Clear
6:35 AM 11.7 °F 5.5 °F 7.7 °F 84% 30.30 in 10.0 mi WSW 3.5 mph - N/A   Clear
6:55 AM 12.0 °F - 7.7 °F 83% 30.30 in 10.0 mi Calm Calm - N/A   Clear
7:15 AM 12.0 °F - 8.1 °F 84% 30.30 in 10.0 mi Calm Calm - N/A   Clear
7:35 AM 11.7 °F 3.7 °F 8.1 °F 85% 30.30 in 10.0 mi WSW 4.6 mph - N/A   Scattered Clouds
7:55 AM 12.9 °F 6.9 °F 9.9 °F 88% 30.30 in 10.0 mi WSW 3.5 mph - N/A   Overcast
8:15 AM 13.1 °F 7.1 °F 9.5 °F 86% 30.30 in 10.0 mi SW 3.5 mph - N/A   Scattered Clouds
8:35 AM 14.4 °F - 10.4 °F 84% 30.29 in 10.0 mi Calm Calm - N/A   Clear
8:55 AM 15.8 °F 10.2 °F 10.8 °F 80% 30.29 in 10.0 mi SSW 3.5 mph - N/A   Clear
9:15 AM 16.3 °F 10.8 °F 9.7 °F 75% 30.29 in 10.0 mi SW 3.5 mph - N/A   Clear
9:35 AM 18.0 °F 9.8 °F 9.9 °F 71% 30.29 in 10.0 mi SW 5.8 mph - N/A   Mostly Cloudy
9:55 AM 18.3 °F 11.5 °F 8.8 °F 66% 30.28 in 10.0 mi WSW 4.6 mph - N/A   Scattered Clouds
10:14 AM 19.8 °F 10.8 °F 9.1 °F 63% 30.28 in 10.0 mi SW 6.9 mph - N/A   Clear
10:35 AM 20.3 °F 12.5 °F 8.1 °F 59% 30.27 in 10.0 mi SSW 5.8 mph - N/A   Mostly Cloudy
10:55 AM 21.2 °F 13.6 °F 7.2 °F 55% 30.26 in 10.0 mi SW 5.8 mph - N/A   Overcast
11:14 AM 21.9 °F 13.4 °F 7.7 °F 54% 30.26 in 10.0 mi SSW 6.9 mph - N/A   Overcast
11:35 AM 22.6 °F 14.3 °F 8.2 °F 54% 30.25 in 10.0 mi SSW 6.9 mph - N/A   Overcast
11:54 AM 22.3 °F 13.0 °F 7.9 °F 54% 30.25 in 10.0 mi WSW 8.1 mph - N/A   Overcast
12:15 PM 23.7 °F 14.0 °F 9.3 °F 54% 30.24 in 10.0 mi SSW 9.2 mph - N/A   Overcast
12:35 PM 25.0 °F 14.2 °F 10.2 °F 54% 30.24 in 10.0 mi SW 11.5 mph - N/A   Mostly Cloudy
12:54 PM 25.2 °F 15.1 °F 10.9 °F 55% 30.23 in 10.0 mi SW 10.4 mph 16.1 mph N/A   Overcast
1:15 PM 25.2 °F 14.4 °F 12.0 °F 58% 30.22 in 10.0 mi SW 11.5 mph - N/A   Overcast
1:35 PM 25.5 °F 12.9 °F 12.9 °F 59% 30.21 in 10.0 mi SW 16.1 mph - N/A   Overcast
1:54 PM 25.9 °F 14.8 °F 13.8 °F 60% 30.20 in 7.0 mi WSW 12.7 mph - N/A   Overcast
2:15 PM 25.7 °F 15.7 °F 13.1 °F 59% 30.19 in 10.0 mi WSW 10.4 mph - N/A   Overcast
2:35 PM 26.4 °F 18.0 °F 13.1 °F 57% 30.17 in 10.0 mi SW 8.1 mph 18.4 mph N/A   Overcast
2:54 PM 27.0 °F 16.7 °F 14.5 °F 60% 30.16 in 7.0 mi WSW 11.5 mph 20.7 mph N/A Snow Light Snow
3:15 PM 28.6 °F 17.2 °F 14.4 °F 55% 30.15 in 7.0 mi WSW 15.0 mph - N/A Snow Light Snow
3:35 PM 27.3 °F 17.7 °F 16.2 °F 63% 30.14 in 4.0 mi West 10.4 mph - N/A Snow Light Snow
3:55 PM 27.7 °F 16.1 °F 13.6 °F 56% 30.13 in 10.0 mi West 15.0 mph 21.9 mph N/A   Overcast
4:15 PM 28.2 °F 17.2 °F 14.0 °F 55% 30.13 in 10.0 mi WSW 13.8 mph 21.9 mph N/A   Overcast
4:35 PM 27.5 °F 16.8 °F 12.7 °F 54% 30.12 in 10.0 mi WSW 12.7 mph - N/A   Overcast
4:55 PM 28.4 °F 17.5 °F 11.5 °F 49% 30.11 in 10.0 mi West 13.8 mph 21.9 mph N/A   Mostly Cloudy
5:15 PM 28.4 °F 16.2 °F 10.9 °F 48% 30.10 in 10.0 mi WSW 17.3 mph 21.9 mph N/A   Mostly Cloudy
5:35 PM 29.1 °F 17.5 °F 9.1 °F 43% 30.10 in 10.0 mi West 16.1 mph 23.0 mph N/A   Mostly Cloudy
5:55 PM 28.2 °F 16.3 °F 10.0 °F 47% 30.10 in 10.0 mi West 16.1 mph 21.9 mph N/A   Scattered Clouds
6:15 PM 28.4 °F 16.6 °F 9.7 °F 46% 30.10 in 10.0 mi West 16.1 mph 19.6 mph N/A   Scattered Clouds
6:35 PM 28.0 °F 17.5 °F 8.8 °F 44% 30.10 in 10.0 mi West 12.7 mph - N/A   Scattered Clouds
6:55 PM 27.5 °F 15.4 °F 7.7 °F 43% 30.10 in 10.0 mi West 16.1 mph 23.0 mph N/A   Clear
7:15 PM 26.6 °F 15.7 °F 6.4 °F 42% 30.10 in 10.0 mi West 12.7 mph - N/A   Clear
7:34 PM 25.5 °F 13.3 °F 7.2 °F 46% 30.09 in 10.0 mi West 15.0 mph - N/A   Clear
7:55 PM 24.8 °F 14.0 °F 7.9 °F 49% 30.10 in 10.0 mi West 11.5 mph 17.3 mph N/A   Clear
8:15 PM 24.1 °F 13.1 °F 9.0 °F 53% 30.10 in 10.0 mi West 11.5 mph - N/A   Clear
8:34 PM 23.9 °F 13.5 °F 9.5 °F 54% 30.09 in 10.0 mi West 10.4 mph - N/A   Clear
8:55 PM 23.0 °F 14.7 °F 9.9 °F 57% 30.09 in 10.0 mi West 6.9 mph - N/A   Clear
9:15 PM 23.0 °F 13.9 °F 10.4 °F 59% 30.09 in 10.0 mi West 8.1 mph - N/A   Clear
9:34 PM 22.1 °F 14.7 °F 10.9 °F 62% 30.09 in 10.0 mi West 5.8 mph - N/A   Clear
9:55 PM 21.0 °F 16.2 °F 11.1 °F 66% 30.08 in 10.0 mi West 3.5 mph - N/A   Clear
10:15 PM 20.3 °F 13.8 °F 11.1 °F 68% 30.08 in 10.0 mi WSW 4.6 mph - N/A   Clear
10:34 PM 20.1 °F 13.6 °F 11.3 °F 69% 30.08 in 10.0 mi WSW 4.6 mph - N/A   Clear
10:55 PM 20.3 °F 15.4 °F 11.3 °F 68% 30.07 in 10.0 mi West 3.5 mph - N/A   Clear
11:15 PM 20.8 °F 16.0 °F 11.3 °F 67% 30.07 in 10.0 mi WSW 3.5 mph - N/A   Clear
11:35 PM 20.7 °F - 11.7 °F 68% 30.06 in 10.0 mi Calm Calm - N/A   Clear
11:55 PM 20.1 °F 13.6 °F 11.3 °F 69% 30.05 in 10.0 mi SSW 4.6 mph - N/A   Clear